Weather History for Kake, AK

Change the Weather History Date:

Wednesday, November 7, 2012

  Actual Average Record
Temperature  
Mean Temperature 34 °F -  
Max Temperature 39 °F 41 °F 48 °F (2002)
Min Temperature 28 °F 33 °F 19 °F (2006)
Degree Days  
Heating Degree Days 32    
Moisture  
Dew Point 32 °F    
Average Humidity 86    
Maximum Humidity 93    
Minimum Humidity 75    
Precipitation  
Precipitation 0.00 in - - ()
Sea Level Pressure  
Sea Level Pressure 30.10 in    
Wind  
Wind Speed 6 mph (ENE)    
Max Wind Speed 15 mph    
Max Gust Speed 22 mph    
Visibility 10 miles    
Events      
Averages and records for this station are not official NWS values.
T = Trace of Precipitation, MM = Missing Value Source: NWS Daily Summary

Daily Weather History Graph

Daily Weather History Graph

Search for Another Location

Airport:

Trip Planner

Search our weather history database for the weather conditions in past years. The results will help you decide how hot, cold, wet, or windy it might be!

Date:

Astronomy

Nov. 07, 2012 Rise Set
Actual Time 7:20 AM AKST 3:57 PM AKST
Civil Twilight 6:38 AM AKST 4:39 PM AKST
Nautical Twilight 5:52 AM AKST 5:25 PM AKST
Astronomical Twilight 5:08 AM AKST 6:09 PM AKST
Moon No Moon Rise 1:21 PM AKST (11/7)
Length of Visible Light 10h 00m
Length of Day
8h 36m
Last Quarter, 41% of the Moon is Illuminated
Nov 7
Last Quarter
Nov 13
New
Nov 20
First Quarter
Nov 28
Full
Dec 6
Last Quarter

Hourly Weather History & Observations

Time (AKST) Temp. Windchill Dew Point Humidity Pressure Visibility Wind Dir Wind Speed Gust Speed Precip Events Conditions
12:16 AM 39.2 °F 34.2 °F 35.6 °F 87% 29.83 in 10.0 mi East 6.9 mph - N/A   Overcast
12:36 AM 39.2 °F 34.2 °F 35.6 °F 87% 29.84 in 10.0 mi East 6.9 mph - N/A   Overcast
12:56 AM 39.2 °F 35.0 °F 35.6 °F 87% 29.84 in 10.0 mi East 5.8 mph - N/A   Overcast
1:16 AM 39.2 °F 35.0 °F 35.6 °F 87% 29.85 in 10.0 mi East 5.8 mph - N/A   Overcast
1:36 AM 39.2 °F 34.2 °F 35.6 °F 87% 29.86 in 10.0 mi ESE 6.9 mph - N/A   Overcast
1:56 AM 39.2 °F 34.2 °F 35.6 °F 87% 29.87 in 10.0 mi ESE 6.9 mph - N/A   Mostly Cloudy
2:16 AM 39.2 °F 34.2 °F 35.6 °F 87% 29.87 in 10.0 mi ESE 6.9 mph - N/A   Overcast
2:36 AM 39.2 °F 34.2 °F 35.6 °F 87% 29.88 in 10.0 mi ESE 6.9 mph - N/A   Overcast
3:36 AM 37.4 °F 32.8 °F 33.8 °F 87% 29.90 in 10.0 mi East 5.8 mph - N/A   Overcast
3:56 AM 37.4 °F 32.1 °F 33.8 °F 87% 29.90 in 10.0 mi East 6.9 mph - N/A   Mostly Cloudy
4:16 AM 39.2 °F 35.0 °F 35.6 °F 87% 29.91 in 10.0 mi East 5.8 mph - N/A   Overcast
4:36 AM 39.2 °F 35.0 °F 35.6 °F 87% 29.91 in 10.0 mi East 5.8 mph - N/A   Overcast
4:56 AM 39.2 °F 37.0 °F 35.6 °F 87% 29.92 in 4.0 mi East 3.5 mph - N/A   Overcast
5:16 AM 39.2 °F 35.0 °F 35.6 °F 87% 29.94 in 10.0 mi East 5.8 mph - N/A   Overcast
5:36 AM 39.2 °F 37.0 °F 35.6 °F 87% 29.95 in 10.0 mi ESE 3.5 mph - N/A   Overcast
5:56 AM 39.2 °F 35.0 °F 35.6 °F 87% 29.95 in 10.0 mi East 5.8 mph - N/A   Overcast
6:16 AM 39.2 °F 35.0 °F 35.6 °F 87% 29.96 in 10.0 mi East 5.8 mph - N/A   Overcast
6:36 AM 39.2 °F 34.2 °F 35.6 °F 87% 29.97 in 10.0 mi East 6.9 mph - N/A   Overcast
6:56 AM 39.2 °F 35.0 °F 35.6 °F 87% 29.98 in 10.0 mi East 5.8 mph - N/A   Overcast
7:16 AM 39.2 °F 35.0 °F 35.6 °F 87% 29.99 in 10.0 mi East 5.8 mph - N/A   Overcast
7:36 AM 37.4 °F 33.8 °F 33.8 °F 87% 30.00 in 10.0 mi East 4.6 mph - N/A   Overcast
7:56 AM 37.4 °F 33.8 °F 35.6 °F 93% 30.01 in 10.0 mi East 4.6 mph - N/A   Overcast
8:16 AM 37.4 °F 34.9 °F 35.6 °F 93% 30.02 in 10.0 mi East 3.5 mph - N/A   Overcast
8:36 AM 39.2 °F 35.0 °F 35.6 °F 87% 30.02 in 10.0 mi East 5.8 mph - N/A   Overcast
8:56 AM 39.2 °F 37.0 °F 35.6 °F 87% 30.03 in 10.0 mi East 3.5 mph - N/A   Overcast
9:16 AM 39.2 °F 35.9 °F 35.6 °F 87% 30.04 in 10.0 mi NE 4.6 mph - N/A   Overcast
9:36 AM 39.2 °F 33.0 °F 35.6 °F 87% 30.05 in 8.0 mi ENE 9.2 mph - N/A   Overcast
9:56 AM 37.4 °F 31.4 °F 33.8 °F 87% 30.06 in 5.0 mi ENE 8.1 mph - N/A   Overcast
10:16 AM 37.4 °F 31.4 °F 35.6 °F 93% 30.07 in 9.0 mi NE 8.1 mph - N/A   Overcast
10:36 AM 39.2 °F 33.6 °F 33.8 °F 81% 30.08 in 10.0 mi ENE 8.1 mph - N/A   Overcast
10:56 AM 39.2 °F 32.5 °F 35.6 °F 87% 30.09 in 10.0 mi NE 10.4 mph - N/A   Overcast
11:16 AM 39.2 °F 32.0 °F 33.8 °F 81% 30.09 in 10.0 mi NE 11.5 mph 17.3 mph N/A   Overcast
11:36 AM 39.2 °F 33.0 °F 33.8 °F 81% 30.10 in 10.0 mi NE 9.2 mph 17.3 mph N/A   Overcast
11:56 AM 39.2 °F 30.8 °F 33.8 °F 81% 30.11 in 10.0 mi NE 15.0 mph 20.7 mph N/A   Overcast
12:16 PM 39.2 °F 32.5 °F 33.8 °F 81% 30.12 in 10.0 mi NE 10.4 mph 18.4 mph N/A   Overcast
12:36 PM 37.4 °F 30.3 °F 33.8 °F 87% 30.12 in 10.0 mi NE 10.4 mph 21.9 mph N/A   Overcast
12:56 PM 37.4 °F 29.3 °F 33.8 °F 87% 30.13 in 10.0 mi NE 12.7 mph 16.1 mph N/A   Overcast
1:16 PM 37.4 °F 31.4 °F 32.0 °F 81% 30.14 in 10.0 mi NE 8.1 mph - N/A   Overcast
1:36 PM 37.4 °F 29.8 °F 32.0 °F 81% 30.15 in 10.0 mi NE 11.5 mph 18.4 mph N/A   Overcast
1:56 PM 37.4 °F 30.3 °F 32.0 °F 81% 30.15 in 10.0 mi NE 10.4 mph 17.3 mph N/A   Overcast
2:16 PM 37.4 °F 30.3 °F 32.0 °F 81% 30.16 in 10.0 mi NE 10.4 mph 16.1 mph N/A   Overcast
2:36 PM 37.4 °F 29.8 °F 30.2 °F 75% 30.16 in 10.0 mi NE 11.5 mph 16.1 mph N/A   Overcast
2:56 PM 37.4 °F 30.8 °F 30.2 °F 75% 30.17 in 10.0 mi NE 9.2 mph 17.3 mph N/A   Overcast
3:16 PM 37.4 °F 30.8 °F 30.2 °F 75% 30.18 in 10.0 mi NE 9.2 mph 18.4 mph N/A   Overcast
3:56 PM 37.4 °F 31.4 °F 30.2 °F 75% 30.19 in 10.0 mi NE 8.1 mph - N/A   Overcast
4:16 PM 35.6 °F 32.8 °F 30.2 °F 81% 30.20 in 10.0 mi North 3.5 mph - N/A   Mostly Cloudy
4:36 PM 35.6 °F 32.8 °F 28.4 °F 75% 30.20 in 10.0 mi NNW 3.5 mph - N/A   Partly Cloudy
4:56 PM 35.6 °F 31.7 °F 28.4 °F 75% 30.21 in 10.0 mi NNW 4.6 mph - N/A   Partly Cloudy
5:16 PM 35.6 °F - 28.4 °F 75% 30.22 in 10.0 mi Calm Calm - N/A   Partly Cloudy
5:36 PM 33.8 °F - 28.4 °F 81% 30.22 in 10.0 mi Calm Calm - N/A   Mostly Cloudy
5:56 PM 32.0 °F 27.5 °F 28.4 °F 87% 30.23 in 10.0 mi NE 4.6 mph - N/A   Scattered Clouds
6:16 PM 30.2 °F 26.7 °F 26.6 °F 86% 30.24 in 10.0 mi NE 3.5 mph - N/A   Partly Cloudy
6:36 PM 30.2 °F 24.3 °F 28.4 °F 93% 30.24 in 10.0 mi ENE 5.8 mph - N/A   Clear
6:56 PM 30.2 °F 25.4 °F 26.6 °F 86% 30.24 in 10.0 mi ENE 4.6 mph - N/A   Clear
7:16 PM 30.2 °F - 26.6 °F 86% 30.25 in 10.0 mi Calm Calm - N/A   Clear
7:36 PM 30.2 °F 26.7 °F 28.4 °F 93% 30.25 in 10.0 mi ENE 3.5 mph - N/A   Clear
7:56 PM 30.2 °F 25.4 °F 26.6 °F 86% 30.26 in 10.0 mi ENE 4.6 mph - N/A   Clear
8:16 PM 30.2 °F 26.7 °F 26.6 °F 86% 30.27 in 10.0 mi NE 3.5 mph - N/A   Clear
8:36 PM 30.2 °F 24.3 °F 26.6 °F 86% 30.27 in 10.0 mi ENE 5.8 mph - N/A   Partly Cloudy
8:56 PM 30.2 °F 24.3 °F 26.6 °F 86% 30.28 in 10.0 mi ENE 5.8 mph - N/A   Clear
9:16 PM 30.2 °F 24.3 °F 26.6 °F 86% 30.28 in 10.0 mi ENE 5.8 mph - N/A   Clear
9:36 PM 28.4 °F 23.3 °F 26.6 °F 93% 30.29 in 10.0 mi ENE 4.6 mph - N/A   Clear
9:56 PM 30.2 °F 26.7 °F 26.6 °F 86% 30.29 in 10.0 mi NE 3.5 mph - N/A   Clear
10:16 PM 30.2 °F 25.4 °F 26.6 °F 86% 30.30 in 10.0 mi ENE 4.6 mph - N/A   Clear
10:36 PM 30.2 °F 24.3 °F 26.6 °F 86% 30.30 in 10.0 mi ENE 5.8 mph - N/A   Mostly Cloudy
10:56 PM 28.4 °F - 26.6 °F 93% 30.31 in 10.0 mi Calm Calm - N/A   Mostly Cloudy
11:16 PM 28.4 °F 24.6 °F 26.6 °F 93% 30.31 in 10.0 mi ENE 3.5 mph - N/A   Partly Cloudy
11:36 PM 28.4 °F 24.6 °F 26.6 °F 93% 30.31 in 10.0 mi NE 3.5 mph - N/A   Mostly Cloudy
11:56 PM 28.4 °F 24.6 °F 26.6 °F 93% 30.32 in 10.0 mi NE 3.5 mph - N/A   Scattered Clouds